Weather History for Wise, VA

Change the Weather History Date:

Saturday, November 3, 2012

  Actual Average Record
Temperature  
Mean Temperature 44 °F -  
Max Temperature 57 °F 56 °F 78 °F (2003)
Min Temperature 32 °F 38 °F 19 °F (1996)
Degree Days  
Heating Degree Days 20    
Moisture  
Dew Point 32 °F    
Average Humidity 67    
Maximum Humidity 100    
Minimum Humidity 38    
Precipitation  
Precipitation 0.02 in - - ()
Sea Level Pressure  
Sea Level Pressure 30.06 in    
Wind  
Wind Speed 3 mph (WNW)    
Max Wind Speed 14 mph    
Max Gust Speed 24 mph    
Visibility 10 miles    
Events Rain , Thunderstorm    
Averages and records for this station are not official NWS values.
T = Trace of Precipitation, MM = Missing Value Source: NWS Daily Summary

Daily Weather History Graph

Daily Weather History Graph

Search for Another Location

Airport:

Trip Planner

Search our weather history database for the weather conditions in past years. The results will help you decide how hot, cold, wet, or windy it might be!

Date:

Astronomy

Nov. 03, 2012 Rise Set
Actual Time 7:56 AM EDT 6:30 PM EDT
Civil Twilight 7:29 AM EDT 6:57 PM EDT
Nautical Twilight 6:58 AM EDT 7:27 PM EDT
Astronomical Twilight 6:28 AM EDT 7:58 PM EDT
Moon 10:12 PM EDT (11/3) 11:57 AM EDT (11/3)
Length of Visible Light 11h 27m
Length of Day
10h 33m
Waning Gibbous, 80% of the Moon is Illuminated
Nov 3
Waning Gibbous
Nov 6
Last Quarter
Nov 13
New
Nov 20
First Quarter
Nov 28
Full

Hourly Weather History & Observations

Time (EDT) Temp. Windchill Dew Point Humidity Pressure Visibility Wind Dir Wind Speed Gust Speed Precip Events Conditions
12:15 AM 39.2 °F 37.0 °F 30.2 °F 70% 30.04 in 10.0 mi NW 3.5 mph - N/A   Clear
12:35 AM 39.2 °F 37.0 °F 30.2 °F 70% 30.04 in 10.0 mi NW 3.5 mph - N/A   Clear
12:55 AM 39.2 °F 35.9 °F 30.2 °F 70% 30.04 in 10.0 mi NW 4.6 mph - N/A   Clear
1:15 AM 37.4 °F 33.8 °F 30.2 °F 75% 30.04 in 10.0 mi NW 4.6 mph - N/A   Clear
1:35 AM 37.4 °F 33.8 °F 30.2 °F 75% 30.04 in 10.0 mi NNW 4.6 mph - N/A   Clear
1:55 AM 37.4 °F 32.8 °F 30.2 °F 75% 30.03 in 10.0 mi NNW 5.8 mph - N/A   Clear
2:15 AM 37.4 °F 33.8 °F 30.2 °F 75% 30.03 in 10.0 mi NNW 4.6 mph - N/A   Clear
2:35 AM 35.6 °F 31.7 °F 30.2 °F 81% 30.03 in 10.0 mi NNW 4.6 mph - N/A   Clear
2:55 AM 37.4 °F 33.8 °F 30.2 °F 75% 30.04 in 10.0 mi NNW 4.6 mph - N/A   Clear
3:15 AM 35.6 °F - 30.2 °F 81% 30.04 in 10.0 mi Calm Calm - N/A   Clear
3:35 AM 35.6 °F 32.8 °F 30.2 °F 81% 30.05 in 10.0 mi NNW 3.5 mph - N/A   Clear
4:15 AM 35.6 °F 29.9 °F 30.2 °F 81% 30.05 in 10.0 mi NNW 6.9 mph - N/A   Clear
4:35 AM 35.6 °F 31.7 °F 30.2 °F 81% 30.05 in 10.0 mi NW 4.6 mph - N/A   Clear
4:55 AM 35.6 °F 32.8 °F 30.2 °F 81% 30.06 in 10.0 mi NW 3.5 mph - N/A   Clear
5:15 AM 33.8 °F - 30.2 °F 87% 30.07 in 10.0 mi Calm Calm - N/A   Clear
5:35 AM 32.0 °F - 30.2 °F 93% 30.07 in 10.0 mi Calm Calm - N/A   Clear
5:55 AM 33.8 °F - 30.2 °F 87% 30.08 in 10.0 mi Calm Calm - N/A   Clear
6:15 AM 33.8 °F - 30.2 °F 87% 30.09 in 10.0 mi Calm Calm - N/A   Clear
6:35 AM 32.0 °F - 30.2 °F 93% 30.09 in 10.0 mi Calm Calm - N/A   Clear
6:55 AM 33.8 °F - 30.2 °F 87% 30.09 in 10.0 mi Calm Calm - N/A   Clear
7:15 AM 33.8 °F - 30.2 °F 87% 30.10 in 10.0 mi Calm Calm - N/A   Clear
7:35 AM 32.0 °F - 28.4 °F 87% 30.10 in 10.0 mi Calm Calm - N/A   Clear
7:55 AM 33.8 °F - 30.2 °F 87% 30.10 in 10.0 mi Calm Calm - N/A   Clear
8:15 AM 32.0 °F - 30.2 °F 93% 30.11 in 10.0 mi Calm Calm - N/A   Clear
8:35 AM 32.0 °F - 30.2 °F 93% 30.12 in 10.0 mi Calm Calm - N/A   Clear
8:55 AM 33.8 °F - 30.2 °F 87% 30.12 in 10.0 mi Calm Calm - N/A   Clear
9:15 AM 35.6 °F - 32.0 °F 87% 30.12 in 10.0 mi Calm Calm - N/A   Clear
9:35 AM 39.2 °F - 32.0 °F 75% 30.12 in 10.0 mi Calm Calm - N/A   Clear
9:55 AM 41.0 °F - 32.0 °F 70% 30.12 in 10.0 mi Calm Calm - N/A   Clear
10:15 AM 42.8 °F - 32.0 °F 66% 30.12 in 10.0 mi Calm Calm - N/A   Clear
10:35 AM 42.8 °F - 32.0 °F 66% 30.12 in 10.0 mi Calm Calm - N/A   Clear
11:15 AM 46.4 °F - 32.0 °F 57% 30.12 in 10.0 mi Calm Calm - N/A   Clear
11:35 AM 46.4 °F 45.2 °F 32.0 °F 57% 30.14 in 10.0 mi SW 3.5 mph - N/A   Clear
11:55 AM 48.2 °F - 32.0 °F 54% 30.14 in 10.0 mi SW 3.5 mph - N/A   Clear
12:15 PM 50.0 °F - 32.0 °F 50% 30.13 in 10.0 mi WSW 4.6 mph - N/A   Clear
12:35 PM 50.0 °F - 32.0 °F 50% 30.12 in 10.0 mi SSW 3.5 mph - N/A   Scattered Clouds
12:55 PM 51.8 °F - 32.0 °F 47% 30.11 in 10.0 mi WSW 3.5 mph - N/A   Mostly Cloudy
1:15 PM 51.8 °F - 32.0 °F 47% 30.10 in 10.0 mi SW 3.5 mph - N/A   Scattered Clouds
1:35 PM 53.6 °F - 32.0 °F 44% 30.09 in 10.0 mi Calm Calm - N/A   Scattered Clouds
1:55 PM 53.6 °F - 32.0 °F 44% 30.08 in 10.0 mi Calm Calm - N/A   Clear
2:15 PM 53.6 °F - 32.0 °F 44% 30.08 in 10.0 mi Calm Calm - N/A   Clear
2:35 PM 57.2 °F - 32.0 °F 38% 30.07 in 10.0 mi South 3.5 mph - N/A   Scattered Clouds
2:55 PM 55.4 °F - 32.0 °F 41% 30.07 in 10.0 mi SSE 3.5 mph - N/A   Mostly Cloudy
3:15 PM 55.4 °F - 32.0 °F 41% 30.07 in 10.0 mi SSW 3.5 mph - N/A   Mostly Cloudy
3:35 PM 55.4 °F - 32.0 °F 41% 30.05 in 10.0 mi South 4.6 mph - N/A   Mostly Cloudy
3:55 PM 53.6 °F - 30.2 °F 41% 30.05 in 10.0 mi SW 4.6 mph - N/A   Overcast
4:15 PM 53.6 °F - 30.2 °F 41% 30.04 in 10.0 mi SSW 3.5 mph - N/A   Overcast
4:35 PM 55.4 °F - 30.2 °F 38% 30.05 in 10.0 mi Calm Calm - N/A   Overcast
4:55 PM 53.6 °F - 33.8 °F 47% 30.04 in 10.0 mi East 3.5 mph - N/A   Overcast
5:15 PM 53.6 °F - 33.8 °F 47% 30.03 in 10.0 mi Calm Calm - N/A   Overcast
5:35 PM 55.4 °F - 33.8 °F 44% 30.02 in 10.0 mi East 3.5 mph - N/A   Overcast
5:55 PM 53.6 °F - 33.8 °F 47% 30.02 in 10.0 mi Calm Calm - N/A   Overcast
6:15 PM 53.6 °F - 33.8 °F 47% 30.01 in 10.0 mi South 4.6 mph - N/A   Overcast
6:35 PM 51.8 °F - 32.0 °F 47% 30.01 in 10.0 mi SSE 4.6 mph - N/A   Overcast
6:55 PM 51.8 °F - 32.0 °F 47% 30.01 in 10.0 mi Calm Calm - N/A   Mostly Cloudy
7:15 PM 51.8 °F - 32.0 °F 47% 30.01 in 10.0 mi SE 3.5 mph - N/A   Mostly Cloudy
7:35 PM 51.8 °F - 30.2 °F 44% 30.00 in 10.0 mi SSE 3.5 mph - N/A   Mostly Cloudy
7:55 PM 51.8 °F - 30.2 °F 44% 30.00 in 10.0 mi Calm Calm - N/A   Scattered Clouds
8:15 PM 50.0 °F - 32.0 °F 50% 30.01 in 10.0 mi Calm Calm - N/A   Scattered Clouds
8:35 PM 46.4 °F 40.4 °F 35.6 °F 66% 30.04 in 10.0 mi North 13.8 mph 24.2 mph N/A   Overcast
8:55 PM 44.6 °F 40.2 °F 35.6 °F 71% 30.02 in 10.0 mi NE 8.1 mph - N/A   Overcast
9:15 PM 44.6 °F 42.2 °F 35.6 °F 71% 30.02 in 10.0 mi NNE 4.6 mph - N/A   Overcast
9:35 PM 42.8 °F 37.0 °F 37.4 °F 81% 30.06 in 10.0 mi North 10.4 mph 19.6 mph N/A Rain Light Rain
9:55 PM 41.0 °F 34.3 °F 37.4 °F 87% 30.05 in 7.0 mi NE 11.5 mph - 0.02 in Rain , Thunderstorm Light Thunderstorms and Rain
10:15 PM 41.0 °F 34.7 °F 37.4 °F 87% 30.05 in 10.0 mi NNE 10.4 mph - N/A   Overcast
10:35 PM 41.0 °F 37.1 °F 37.4 °F 87% 30.05 in 10.0 mi ENE 5.8 mph - N/A   Overcast
10:55 PM 41.0 °F - 37.4 °F 87% 30.04 in 10.0 mi Calm Calm - N/A   Overcast
11:15 PM 42.8 °F - 39.2 °F 87% 30.02 in 10.0 mi Calm Calm - N/A   Overcast
11:35 PM 41.0 °F 39.0 °F 41.0 °F 100% 30.02 in 10.0 mi South 3.5 mph - N/A   Overcast
11:55 PM 41.0 °F - 41.0 °F 100% 30.01 in 10.0 mi Calm Calm - N/A   Overcast